EW9007 Weather Reports


time (UTC)temp
C
wind
direction
speed
KPH
gust
KPH
rain 1hr
cm
rain 24hr
cm
rain mn
cm
humidity
%
barometer
mb
20260504222014 24 348 14.5 33.8 0.00 0.00 0.00 22 1002.8
20260504221513 24 34 16.1 33.8 0.00 0.00 0.00 22 1002.7
20260504221009 24 332 11.3 29.0 0.00 0.00 0.00 23 1002.6
20260504220508 24 5 12.9 37.0 0.00 0.00 0.00 22 1002.4
20260504220019 25 346 16.1 37.0 0.00 0.00 0.00 21 1002.3
20260504215507 25 350 12.9 29.0 0.00 0.00 0.00 23 1002.3
20260504215009 24 315 9.7 37.0 0.00 0.00 0.00 22 1002.3
20260504214520 24 5 19.3 37.0 0.00 0.00 0.00 23 1002.3
20260504214010 24 333 8.0 30.6 0.00 0.00 0.00 23 1002.3
20260504213511 25 352 16.1 30.6 0.00 0.00 0.00 23 1002.3
20260504213009 25 352 14.5 30.6 0.00 0.00 0.00 24 1002.3
20260504212503 25 337 14.5 24.1 0.00 0.00 0.00 25 1002.3
20260504212002 25 32 9.7 27.4 0.00 0.00 0.00 27 1002.1
20260504211504 25 11 11.3 32.2 0.00 0.00 0.00 25 1002.2
20260504211003 25 328 12.9 32.2 0.00 0.00 0.00 25 1002.1
20260504210504 25 336 16.1 32.2 0.00 0.00 0.00 26 1002.0
20260504210008 25 329 11.3 32.2 0.00 0.00 0.00 27 1002.0
20260504205503 25 350 14.5 30.6 0.00 0.00 0.00 26 1002.2
20260504205007 25 346 11.3 35.4 0.00 0.00 0.00 26 1002.1
20260504204517 25 334 11.3 35.4 0.00 0.00 0.00 26 1002.0
20260504204004 25 344 16.1 32.2 0.00 0.00 0.00 27 1002.0
20260504203504 25 9 17.7 27.4 0.00 0.00 0.00 26 1001.9
20260504203009 25 298 11.3 29.0 0.00 0.00 0.00 27 1002.0
20260504202508 25 348 12.9 29.0 0.00 0.00 0.00 27 1002.0
20260504202003 25 339 14.5 33.8 0.00 0.00 0.00 27 1002.0
20260504201503 25 331 14.5 33.8 0.00 0.00 0.00 25 1002.0
20260504201005 26 322 9.7 29.0 0.00 0.00 0.00 26 1002.1
20260504200503 26 302 11.3 32.2 0.00 0.00 0.00 25 1002.0
20260504200006 26 323 14.5 32.2 0.00 0.00 0.00 26 1001.9
20260504195503 26 315 11.3 24.1 0.00 0.00 0.00 25 1001.9
20260504195005 26 306 11.3 22.5 0.00 0.00 0.00 25 1001.9
20260504194508 26 294 6.4 19.3 0.00 0.00 0.00 26 1001.8
20260504194005 26 327 6.4 25.7 0.00 0.00 0.00 26 1001.9
20260504193507 26 352 8.0 33.8 0.00 0.00 0.00 25 1001.8
20260504193011 26 352 16.1 35.4 0.00 0.00 0.00 25 1001.8
20260504192503 26 342 12.9 35.4 0.00 0.00 0.00 24 1001.6
20260504192004 26 350 11.3 32.2 0.00 0.00 0.00 24 1001.6
20260504191504 26 5 12.9 32.2 0.00 0.00 0.00 23 1001.7
20260504191003 26 312 9.7 22.5 0.00 0.00 0.00 23 1001.6
20260504190503 26 290 3.2 27.4 0.00 0.00 0.00 23 1001.5
20260504190007 26 360 9.7 32.2 0.00 0.00 0.00 23 1001.6
20260504185504 26 330 11.3 33.8 0.00 0.00 0.00 23 1001.4
20260504185004 26 338 14.5 33.8 0.00 0.00 0.00 22 1001.3
20260504184513 26 320 3.2 22.5 0.00 0.00 0.00 23 1001.4
20260504184004 26 288 1.6 25.7 0.00 0.00 0.00 23 1001.4
20260504183504 27 352 11.3 25.7 0.00 0.00 0.00 22 1001.3
20260504183007 26 280 9.7 25.7 0.00 0.00 0.00 24 1001.2
20260504182506 26 312 3.2 27.4 0.00 0.00 0.00 22 1001.4
20260504182010 26 314 6.4 27.4 0.00 0.00 0.00 23 1001.3
20260504181503 26 265 3.2 20.9 0.00 0.00 0.00 25 1001.4
20260504181004 26 327 4.8 27.4 0.00 0.00 0.00 22 1001.5
20260504180504 26 334 6.4 27.4 0.00 0.00 0.00 22 1001.5
20260504180013 26 343 6.4 22.5 0.00 0.00 0.00 23 1001.7
20260504175503 26 321 4.8 40.2 0.00 0.00 0.00 22 1001.7
20260504175005 26 349 4.8 40.2 0.00 0.00 0.00 24 1001.7
20260504174507 26 300 1.6 30.6 0.00 0.00 0.00 24 1001.8
20260504174004 26 330 1.6 30.6 0.00 0.00 0.00 24 1001.8
20260504173504 26 302 11.3 32.2 0.00 0.00 0.00 23 1001.9
20260504173018 26 326 4.8 32.2 0.00 0.00 0.00 24 1001.8
20260504172508 26 261 1.6 17.7 0.00 0.00 0.00 24 1001.9
20260504172006 26 307 0.0 14.5 0.00 0.00 0.00 23 1002.0
20260504171514 25 339 0.0 12.9 0.00 0.00 0.00 24 1002.1
20260504171009 25 329 0.0 6.4 0.00 0.00 0.00 27 1002.2
20260504170504 25 278 0.0 4.8 0.00 0.00 0.00 28 1002.2
20260504151005 19 304 0.0 1.6 0.00 0.00 0.00 40 1002.4
20260504150506 19 269 0.0 0.0 0.00 0.00 0.00 41 1002.5
20260504141010 17 323 1.6 17.7 0.00 0.00 0.00 44 1002.6
20260504140506 16 300 8.0 19.3 0.00 0.00 0.00 44 1002.7
20260504130509 12 355 0.0 0.0 0.00 0.00 0.00 67 1002.5
20260504110502 10 162 0.0 0.0 0.00 0.00 0.00 62 1002.4
20260504100511 12 162 0.0 0.0 0.00 0.00 0.00 52 1002.5
20260504082008 11 169 0.0 0.0 0.00 0.00 0.00 57 1003.7
20260504081507 12 169 0.0 0.0 0.00 0.00 0.00 56 1003.8
20260504081006 12 169 0.0 0.0 0.00 0.00 0.00 56 1003.9
20260504080507 12 169 0.0 0.0 0.00 0.00 0.00 54 1003.9
20260504050509 14 169 0.0 0.0 0.00 0.00 0.00 50 1006.8
20260504045507 15 169 0.0 0.0 0.00 0.00 0.00 49 1006.8
20260504045004 15 169 0.0 0.0 0.00 0.00 0.00 48 1006.8
20260504044515 15 169 0.0 0.0 0.00 0.00 0.00 49 1006.9
20260504044003 15 182 0.0 0.0 0.00 0.00 0.00 49 1006.9
20260504043508 15 190 0.0 0.0 0.00 0.00 0.00 50 1007.0
20260504043023 15 198 0.0 0.0 0.00 0.00 0.00 49 1007.0
20260504042508 15 198 0.0 0.0 0.00 0.00 0.00 50 1007.1
20260504042008 15 198 0.0 0.0 0.00 0.00 0.00 52 1007.1
20260504041521 15 198 0.0 0.0 0.00 0.00 0.00 53 1007.2
20260504041008 15 198 0.0 0.0 0.00 0.00 0.00 53 1007.3
20260504040507 15 198 0.0 0.0 0.00 0.00 0.00 53 1007.4
20260504040007 15 198 0.0 0.0 0.00 0.00 0.00 52 1007.4
20260504035503 15 198 0.0 0.0 0.00 0.00 0.00 50 1007.4
20260504035003 15 198 0.0 0.0 0.00 0.00 0.00 49 1007.4
20260504034514 15 198 0.0 0.0 0.00 0.00 0.00 49 1007.4
20260504034002 16 198 0.0 0.0 0.00 0.00 0.00 47 1007.5
20260504033503 16 198 0.0 0.0 0.00 0.00 0.00 45 1007.5
20260504033015 16 198 0.0 0.0 0.00 0.00 0.00 45 1007.6
20260504032503 16 198 0.0 0.0 0.00 0.00 0.00 46 1007.6
20260504032004 16 198 0.0 0.0 0.00 0.00 0.00 43 1007.6
20260504031504 16 198 0.0 0.0 0.00 0.00 0.00 43 1007.6
20260504031003 16 198 0.0 0.0 0.00 0.00 0.00 42 1007.7
20260504030503 16 198 0.0 0.0 0.00 0.00 0.00 42 1007.7
20260504030005 17 198 0.0 0.0 0.00 0.00 0.00 42 1007.7
20260504025507 17 198 0.0 0.0 0.00 0.00 0.00 41 1007.7
20260504025004 17 198 0.0 0.0 0.00 0.00 0.00 40 1007.7
20260504024505 17 198 0.0 0.0 0.00 0.00 0.00 35 1007.7
20260504024008 17 198 0.0 0.0 0.00 0.00 0.00 36 1007.8
20260504023507 17 198 0.0 0.0 0.00 0.00 0.00 36 1007.8
20260504023004 17 198 0.0 0.0 0.00 0.00 0.00 36 1007.7
20260504022504 17 198 0.0 0.0 0.00 0.00 0.00 35 1007.8
20260504022003 18 198 0.0 0.0 0.00 0.00 0.00 36 1007.9
20260504021518 18 198 0.0 0.0 0.00 0.00 0.00 37 1007.9
20260504021002 18 198 0.0 0.0 0.00 0.00 0.00 36 1007.9
20260504020505 18 197 0.0 0.0 0.00 0.00 0.00 32 1008.0
20260504020004 18 197 0.0 0.0 0.00 0.00 0.00 32 1008.0
20260504015502 18 197 0.0 0.0 0.00 0.00 0.00 31 1008.0
20260504015004 18 197 0.0 0.0 0.00 0.00 0.00 31 1008.0
20260504014515 18 197 0.0 0.0 0.00 0.00 0.00 30 1008.0
20260504014008 19 197 0.0 0.0 0.00 0.00 0.00 30 1008.0
20260504013504 19 197 0.0 0.0 0.00 0.00 0.00 30 1007.9
20260504013009 19 197 0.0 0.0 0.00 0.00 0.00 31 1007.9
20260504012504 20 197 0.0 0.0 0.00 0.00 0.00 30 1007.9
20260504012006 20 197 0.0 0.0 0.00 0.00 0.00 30 1008.0
20260504011504 20 197 0.0 0.0 0.00 0.00 0.00 30 1008.1
20260504011003 20 197 0.0 0.0 0.00 0.00 0.00 30 1008.2
20260504010504 20 196 0.0 0.0 0.00 0.00 0.00 28 1008.1
20260504010003 20 196 0.0 0.0 0.00 0.00 0.00 28 1008.3
20260504005503 21 196 0.0 0.0 0.00 0.00 0.00 28 1008.3
20260504005004 21 196 0.0 0.0 0.00 0.00 0.00 28 1008.3
20260504004504 21 196 0.0 0.0 0.00 0.00 0.00 29 1008.4
20260504004004 21 198 0.0 0.0 0.00 0.00 0.00 28 1008.5
20260504003505 21 198 0.0 0.0 0.00 0.00 0.00 28 1008.5
20260504003007 21 199 0.0 0.0 0.00 0.00 0.00 27 1008.6
20260504002503 21 231 0.0 0.0 0.00 0.00 0.00 27 1008.5
20260504002005 21 231 0.0 0.0 0.00 0.00 0.00 27 1008.6
20260504001512 22 238 0.0 0.0 0.00 0.00 0.00 27 1008.6
20260504001007 22 196 0.0 0.0 0.00 0.00 0.00 27 1008.7
20260504000505 22 223 0.0 0.0 0.00 0.00 0.00 28 1008.7
20260504000012 22 198 0.0 0.0 0.00 0.00 0.00 29 1008.7
20260503235507 22 200 0.0 0.0 0.00 0.00 0.00 28 1008.7
20260503235004 22 284 0.0 0.0 0.00 0.00 0.00 28 1008.7
20260503234507 22 288 0.0 0.0 0.00 0.00 0.00 27 1008.7
20260503234003 22 207 0.0 0.0 0.00 0.00 0.00 29 1008.7
20260503233503 22 198 0.0 0.0 0.00 0.00 0.00 28 1008.7
20260503233003 22 190 0.0 0.0 0.00 0.00 0.00 27 1008.7
20260503232502 22 188 0.0 0.0 0.00 0.00 0.00 28 1008.8
20260503232004 22 238 0.0 0.0 0.00 0.00 0.00 27 1008.8
20260503231522 22 194 0.0 0.0 0.00 0.00 0.00 28 1008.9
20260503231003 21 199 0.0 0.0 0.00 0.00 0.00 28 1008.9
20260503230510 22 296 0.0 0.0 0.00 0.00 0.00 29 1008.9
20260503230014 22 296 0.0 0.0 0.00 0.00 0.00 30 1009.0
20260503225503 21 296 0.0 0.0 0.00 0.00 0.00 30 1009.0
20260503225007 21 296 0.0 0.0 0.00 0.00 0.00 29 1009.0
20260503224515 22 296 0.0 0.0 0.00 0.00 0.00 28 1009.0
20260503224007 22 296 0.0 0.0 0.00 0.00 0.00 29 1008.9
20260503223501 22 279 0.0 0.0 0.00 0.00 0.00 28 1008.9
20260503223004 22 279 0.0 0.0 0.00 0.00 0.00 28 1008.9
20260503222503 22 348 0.0 1.6 0.00 0.00 0.00 26 1009.0